Wind_Speed
3 4 5 6 6 6 7 7 7 8 9 9 10 10 11 11 13 13 13 13 13 12 11 10 10 9 8 8 7 7 6 6 6 5 5 4 3 2 2 1 2 3 3 3
3 4 4 5 6 6 6 6 7 7 9 9 9 10 10 11 12 12 13 13 13 12 11 10 10 10 9 8 7 6 6 6 6 6 5 5 4 3 2 2 2 2 3 3
4 4 3 4 5 6 6 6 7 8 9 10 9 10 11 11 11 12 12 13 13 12 12 11 11 10 9 8 7 6 6 5 5 5 5 5 4 3 3 2 2 2 3 3
3 4 5 4 5 6 6 7 7 8 9 10 10 10 11 11 12 12 12 12 12 13 12 11 11 10 9 8 7 7 6 5 5 5 5 5 4 4 3 2 2 3 3 3
5 5 5 5 5 6 6 7 7 8 9 9 10 10 10 10 11 12 12 13 12 12 12 11 11 10 9 8 8 7 6 6 6 5 5 5 4 4 3 3 3 3 3 4
5 6 6 6 7 6 5 6 8 8 8 8 9 9 10 10 11 12 12 13 13 13 12 11 11 10 10 9 8 7 7 7 6 6 5 5 5 5 4 4 3 3 4 4
6 6 5 6 6 7 6 6 7 7 8 8 9 9 10 10 12 13 12 12 13 13 13 12 11 11 10 9 8 8 7 7 7 7 6 6 6 5 5 4 4 4 4 4
7 6 6 5 5 5 6 7 7 8 8 8 9 9 9 10 11 12 13 13 13 12 13 13 12 12 11 10 9 8 7 7 7 7 7 7 6 6 5 5 4 4 4 5
7 7 7 6 6 6 6 7 7 8 8 8 8 9 9 10 11 11 12 12 13 13 13 13 13 12 11 11 9 9 8 8 8 8 8 8 7 7 7 6 5 5 6 6
8 8 7 7 7 7 7 6 7 7 8 8 7 8 9 9 9 10 12 12 12 13 14 14 13 12 12 11 10 10 9 9 9 8 8 8 8 8 8 7 7 6 7 7
9 8 8 8 7 7 7 7 7 7 7 7 7 7 8 8 9 10 11 12 12 12 14 14 14 13 12 12 11 10 9 9 10 10 9 10 9 9 9 8 8 7 7 7
10 9 8 8 8 8 8 8 8 8 8 8 7 5 7 8 9 11 11 12 13 14 14 15 15 14 13 12 12 11 11 11 11 11 10 10 10 10 10 9 9 9 9 9
11 10 9 10 9 8 8 8 9 9 9 9 8 6 7 8 9 10 11 11 12 13 14 15 15 14 14 13 13 11 11 12 12 11 10 11 11 11 11 11 11 11 10 10
12 12 10 10 9 9 9 9 9 9 9 9 9 8 8 9 9 11 11 11 11 11 12 13 14 14 13 13 13 12 11 11 11 11 11 12 12 12 12 12 12 12 11 11
14 13 12 12 12 11 11 11 11 11 10 10 10 10 10 11 11 11 11 11 11 11 11 13 14 15 14 14 13 12 12 12 12 12 12 12 12 12 13 13 13 12 12 12
16 15 14 14 14 13 12 12 12 11 11 10 11 10 11 11 12 11 11 12 11 11 12 13 14 15 14 14 13 13 13 13 12 12 13 13 13 13 13 13 12 12 13 13
17 17 16 15 16 15 13 12 12 12 11 11 10 11 11 11 12 12 12 12 12 12 13 13 13 14 14 13 13 14 14 13 13 13 13 13 13 13 13 13 13 13 13 14
18 17 17 16 16 16 12 13 13 12 12 11 11 11 12 12 12 13 13 13 13 13 13 13 13 14 14 14 14 14 14 14 13 14 14 14 14 14 13 12 13 13 14 15
19 18 18 18 17 15 13 13 13 13 12 12 12 12 13 13 13 13 14 14 14 14 14 14 14 14 15 15 15 15 14 14 14 14 14 14 14 13 13 13 13 14 15 16
20 20 20 18 18 16 14 15 14 14 13 13 13 13 14 14 14 13 15 15 15 15 14 14 14 15 15 15 15 15 15 15 14 13 13 13 13 13 14 14 15 16 17 18
22 21 20 19 18 16 15 16 16 15 13 14 14 14 15 14 13 13 15 15 15 16 15 15 15 15 15 16 16 15 15 15 15 15 15 15 15 15 16 16 17 18 18 19
23 22 21 20 19 16 16 16 16 16 16 15 15 15 15 16 15 14 15 15 16 16 17 16 16 16 16 16 17 16 16 16 16 16 16 16 17 17 17 17 18 19 20 21
24 23 22 21 19 18 17 17 17 17 17 17 16 16 16 16 16 16 16 16 16 16 17 17 17 17 17 17 17 17 17 17 17 17 17 17 18 18 18 19 20 21 22 23
24 24 23 22 21 20 20 19 18 18 18 18 17 17 17 17 17 17 17 17 17 17 18 18 18 18 17 18 18 18 18 18 18 18 18 19 19 19 20 20 21 23 24 26
25 24 24 24 22 21 21 21 21 20 19 19 18 18 18 18 18 18 18 17 17 17 18 18 18 19 18 18 19 19 19 19 19 20 20 20 20 21 21 22 23 24 25 27
26 26 26 24 23 23 22 23 22 21 21 20 19 19 20 20 19 19 19 18 18 18 18 18 18 19 19 19 20 20 20 21 21 21 21 21 22 22 23 24 26 27 28 30
Wind_Direction
234 234 224 221 219 212 212 211 213 212 206 200 194 193 189 194 194 193 190 191 191 193 198 200 200 199 203 209 212 210 207 207 214 216 215 223 234 255 267 288 313 327 342 354
235 229 225 213 205 207 207 213 217 214 213 213 208 198 191 193 191 192 193 194 194 194 196 199 200 202 208 210 209 210 209 210 217 222 225 233 234 248 265 286 306 323 335 346
242 230 221 210 205 206 209 216 218 220 222 226 222 206 201 197 194 195 195 196 195 197 199 203 203 205 208 212 208 208 212 218 221 228 232 236 239 247 262 280 297 316 326 333
227 224 218 212 209 212 215 219 219 224 227 224 216 205 201 197 199 198 197 198 202 198 199 203 204 203 205 209 212 211 218 222 223 224 225 230 238 244 257 272 285 303 313 320
223 220 216 215 216 220 224 222 222 225 226 221 214 211 207 202 202 199 199 202 201 198 199 201 203 203 206 213 218 220 222 223 222 223 226 231 239 236 248 265 276 296 305 312
226 223 221 220 222 222 220 217 214 216 222 220 215 216 211 207 202 202 202 204 203 204 206 206 209 210 212 216 220 223 225 226 224 225 229 233 237 239 253 264 272 289 303 313
226 226 227 226 223 222 220 217 215 215 219 218 215 215 214 217 213 209 207 209 208 210 211 211 213 214 215 218 221 222 225 228 229 230 233 235 238 244 254 261 267 281 297 309
224 222 227 232 228 220 218 221 222 224 222 216 217 217 216 221 221 217 214 215 217 217 217 217 217 219 220 220 223 223 228 232 235 234 237 236 237 241 248 254 264 277 293 302
225 221 226 233 228 221 225 228 232 234 228 225 223 226 223 221 220 221 220 221 222 222 222 219 219 221 223 226 229 229 234 237 236 234 234 238 239 239 247 254 262 273 288 293
224 223 223 229 234 230 227 234 237 240 237 230 224 225 226 223 224 223 220 223 223 223 222 220 221 223 224 228 233 234 237 240 239 238 238 240 239 248 255 260 266 273 285 286
228 228 228 230 233 240 240 244 247 245 241 239 234 223 224 227 224 226 225 226 227 225 223 223 225 224 226 231 235 235 239 241 241 240 240 242 247 255 260 263 266 273 280 282
232 230 229 231 238 245 245 248 249 247 242 242 241 225 226 227 226 228 229 232 232 229 225 226 229 229 232 235 236 236 240 241 242 242 241 241 247 255 258 261 267 272 274 278
230 230 232 232 239 247 249 251 249 246 244 241 240 226 226 228 232 235 233 234 234 232 230 232 232 233 233 234 236 239 242 241 241 242 243 247 253 258 260 263 268 270 270 274
228 230 234 238 244 250 253 255 253 249 249 244 241 235 233 233 235 239 237 235 233 231 230 231 232 232 232 233 234 238 240 240 242 243 244 250 257 260 261 265 268 269 270 273
229 232 234 238 243 249 252 253 255 256 254 249 241 239 238 238 239 242 237 235 235 231 231 232 232 234 234 233 234 239 241 240 245 246 246 253 262 264 264 264 265 267 269 271
233 235 238 241 246 250 252 256 258 258 254 250 243 238 237 237 237 238 237 236 238 236 235 235 233 233 235 235 238 240 243 244 247 248 251 256 264 266 265 264 262 265 269 273
235 239 242 244 248 251 253 257 256 255 254 249 244 239 236 238 239 238 239 240 244 243 239 238 237 234 235 237 241 243 245 249 251 252 254 259 264 265 265 264 263 266 272 276
240 242 245 248 249 250 255 252 251 253 252 247 244 239 237 239 239 239 241 243 244 245 245 244 240 235 235 239 243 246 245 248 253 255 256 258 259 261 266 269 268 270 275 279
242 244 247 248 249 250 251 249 248 250 249 246 246 243 244 245 246 244 244 245 246 245 247 245 243 240 239 241 243 247 247 249 253 255 256 255 258 262 267 271 272 275 278 281
244 246 249 249 252 252 248 248 248 248 248 248 247 247 247 249 252 249 246 246 246 246 247 245 244 241 241 242 245 249 249 249 251 255 256 257 262 266 269 272 276 279 282 285
243 246 248 250 252 251 249 248 249 250 250 248 247 248 249 248 248 248 247 247 245 244 245 246 245 244 244 244 246 248 248 250 250 255 259 259 263 267 271 275 278 281 284 287
243 244 246 249 249 249 249 248 249 249 248 247 246 248 249 247 246 247 249 250 247 245 244 245 247 247 247 247 248 248 251 252 255 259 261 262 266 269 273 276 280 283 287 289
242 243 245 246 248 250 250 249 247 248 248 247 248 249 249 247 247 248 250 250 248 247 243 244 248 250 248 249 251 251 254 256 258 261 262 264 267 270 274 278 282 286 289 291
240 240 243 246 247 249 249 249 248 248 249 249 248 248 248 247 248 249 250 249 247 247 244 245 249 251 252 250 250 253 257 257 258 260 263 266 270 274 277 281 286 288 290 291
241 242 245 247 249 248 247 248 249 249 249 249 247 247 246 247 248 249 252 250 247 248 247 246 248 249 250 252 254 256 258 261 263 263 265 270 273 276 280 284 287 290 292 294
242 245 246 248 247 246 246 247 248 248 248 247 246 247 247 249 251 251 251 251 251 250 248 248 250 252 254 256 257 258 262 265 267 268 269 271 275 279 282 285 288 290 292 295
Height
5832 5834 5833 5834 5836 5837 5838 5839 5840 5842 5842 5844 5846 5847 5849 5850 5852 5855 5857 5859 5861 5863 5865 5867 5869 5870 5871 5872 5873 5874 5875 5876 5877 5878 5879 5879 5880 5880 5880 5880 5879 5879 5879 5878
5833 5833 5833 5834 5835 5836 5838 5839 5840 5841 5842 5844 5845 5847 5848 5850 5852 5854 5856 5858 5861 5863 5864 5866 5868 5869 5870 5871 5873 5874 5875 5876 5876 5877 5878 5879 5879 5879 5879 5879 5879 5878 5878 5878
5833 5834 5833 5834 5835 5836 5837 5838 5839 5840 5841 5843 5845 5847 5848 5850 5851 5853 5855 5857 5860 5862 5864 5865 5867 5868 5869 5870 5872 5873 5874 5875 5875 5876 5877 5878 5878 5878 5878 5878 5878 5878 5878 5877
5832 5833 5834 5835 5835 5836 5837 5838 5839 5840 5841 5842 5845 5846 5848 5849 5851 5853 5855 5857 5859 5861 5862 5864 5865 5867 5868 5870 5871 5872 5873 5874 5874 5875 5876 5877 5877 5877 5878 5878 5877 5877 5877 5876
5832 5833 5834 5834 5835 5836 5836 5837 5838 5839 5840 5842 5844 5845 5848 5848 5850 5852 5854 5856 5857 5859 5861 5863 5864 5866 5867 5869 5870 5871 5871 5872 5873 5874 5875 5875 5876 5876 5877 5877 5877 5876 5876 5875
5832 5833 5834 5834 5835 5836 5836 5837 5838 5839 5840 5842 5843 5845 5847 5848 5849 5851 5853 5855 5856 5858 5860 5862 5863 5865 5866 5868 5868 5869 5870 5871 5872 5873 5874 5874 5875 5875 5876 5876 5875 5875 5875 5874
5832 5833 5833 5834 5834 5835 5836 5838 5839 5839 5840 5841 5842 5844 5846 5847 5848 5850 5852 5853 5855 5857 5858 5860 5862 5863 5865 5866 5867 5868 5869 5870 5871 5871 5872 5873 5873 5874 5874 5874 5874 5874 5874 5873
5831 5833 5833 5834 5834 5835 5836 5837 5839 5839 5840 5840 5841 5843 5845 5845 5846 5848 5850 5852 5853 5855 5857 5859 5860 5862 5863 5864 5865 5866 5867 5868 5869 5870 5871 5871 5872 5872 5873 5873 5873 5872 5872 5872
5831 5832 5833 5833 5834 5835 5836 5836 5838 5838 5839 5840 5841 5842 5843 5844 5845 5847 5848 5850 5852 5854 5855 5857 5858 5860 5861 5863 5864 5864 5865 5866 5867 5868 5869 5869 5870 5871 5871 5871 5871 5871 5870 5870
5830 5831 5832 5832 5833 5834 5835 5836 5837 5837 5838 5839 5840 5841 5842 5843 5844 5845 5847 5848 5850 5852 5853 5855 5856 5858 5859 5861 5862 5862 5863 5864 5865 5866 5867 5867 5868 5868 5869 5869 5869 5869 5868 5868
5828 5830 5831 5832 5833 5833 5834 5835 5835 5836 5837 5838 5839 5842 5841 5842 5843 5844 5845 5847 5848 5850 5851 5853 5854 5856 5857 5858 5859 5860 5861 5862 5863 5864 5864 5865 5866 5866 5866 5866 5866 5866 5866 5866
5827 5828 5829 5831 5832 5832 5833 5833 5834 5835 5836 5836 5837 5842 5839 5840 5841 5842 5843 5845 5846 5847 5849 5850 5852 5853 5855 5856 5857 5858 5859 5860 5861 5861 5862 5862 5863 5863 5864 5864 5864 5864 5863 5863
5825 5827 5828 5829 5832 5831 5831 5832 5832 5833 5834 5834 5836 5840 5838 5838 5839 5840 5841 5842 5843 5845 5846 5848 5849 5851 5852 5853 5854 5855 5856 5857 5858 5858 5859 5860 5860 5861 5861 5861 5861 5861 5860 5860
5823 5824 5827 5828 5828 5829 5829 5830 5830 5831 5832 5833 5834 5835 5836 5836 5837 5838 5839 5840 5841 5842 5844 5845 5846 5848 5849 5850 5851 5852 5853 5854 5855 5856 5856 5857 5857 5857 5857 5857 5857 5857 5857 5857
5820 5822 5823 5824 5825 5826 5827 5828 5828 5829 5830 5831 5832 5832 5833 5834 5835 5836 5837 5838 5839 5840 5841 5843 5844 5845 5846 5847 5848 5849 5850 5851 5852 5852 5853 5853 5853 5853 5853 5853 5853 5854 5854 5854
5817 5819 5820 5821 5822 5823 5824 5825 5826 5826 5827 5828 5829 5830 5830 5831 5832 5833 5834 5835 5836 5838 5839 5840 5841 5842 5843 5844 5845 5846 5847 5848 5848 5849 5850 5850 5849 5849 5849 5849 5849 5850 5850 5850
5813 5815 5817 5818 5819 5820 5822 5823 5823 5824 5824 5825 5826 5828 5828 5829 5829 5831 5832 5833 5834 5835 5836 5837 5838 5839 5840 5841 5842 5843 5844 5845 5845 5846 5846 5846 5846 5846 5845 5845 5846 5847 5847 5847
5809 5811 5812 5814 5816 5817 5821 5819 5820 5821 5822 5822 5823 5824 5825 5826 5827 5828 5829 5830 5831 5832 5833 5834 5834 5836 5837 5838 5839 5840 5841 5842 5842 5843 5843 5843 5843 5843 5843 5843 5843 5843 5843 5843
5805 5807 5808 5810 5811 5813 5816 5816 5816 5817 5818 5819 5820 5821 5822 5822 5823 5825 5825 5826 5827 5829 5830 5830 5831 5832 5833 5835 5836 5837 5837 5838 5839 5839 5839 5840 5840 5840 5840 5840 5840 5840 5839 5839
5800 5802 5804 5806 5807 5809 5813 5812 5812 5814 5815 5816 5816 5817 5818 5819 5820 5822 5822 5822 5824 5825 5826 5827 5828 5829 5830 5831 5832 5833 5834 5835 5835 5836 5836 5836 5836 5836 5836 5836 5836 5836 5835 5835
5795 5797 5799 5801 5802 5804 5807 5807 5809 5811 5813 5812 5812 5813 5815 5815 5817 5817 5818 5819 5820 5821 5822 5823 5824 5825 5826 5827 5828 5829 5830 5831 5831 5832 5832 5832 5833 5833 5832 5832 5832 5831 5830 5830
5790 5792 5794 5796 5797 5802 5802 5803 5805 5806 5806 5807 5808 5809 5810 5811 5812 5813 5814 5815 5816 5817 5818 5819 5820 5821 5822 5823 5824 5825 5826 5827 5827 5828 5828 5828 5828 5828 5828 5827 5827 5826 5825 5824
5784 5787 5789 5792 5795 5796 5797 5798 5799 5800 5802 5803 5804 5805 5806 5807 5808 5809 5810 5810 5812 5813 5814 5815 5816 5817 5818 5819 5820 5821 5821 5822 5822 5823 5823 5824 5823 5823 5823 5822 5821 5820 5819 5818
5778 5781 5783 5785 5788 5790 5791 5792 5794 5795 5796 5797 5799 5800 5801 5802 5803 5804 5805 5806 5807 5808 5809 5811 5812 5812 5813 5814 5815 5816 5816 5817 5818 5818 5818 5818 5818 5818 5817 5816 5815 5814 5813 5811
5773 5775 5777 5779 5782 5784 5785 5786 5788 5789 5791 5792 5794 5795 5796 5797 5799 5800 5801 5802 5803 5804 5805 5806 5807 5808 5809 5809 5810 5811 5811 5812 5813 5813 5813 5813 5813 5812 5811 5810 5809 5808 5806 5804
5767 5769 5771 5773 5776 5777 5780 5781 5782 5783 5785 5787 5788 5790 5791 5792 5793 5795 5796 5797 5798 5799 5800 5801 5802 5803 5804 5804 5805 5806 5806 5807 5807 5807 5807 5807 5807 5806 5805 5804 5802 5800 5798 5796